Погода в Валли

Ангилья     18°13′20″N   63°02′37″W
темп.,
°C
ветер,
м/с
пор.,
м/с
влажн.,
%
обл.,
%
осадки,
мм/ч
давл.,
гПа
погр.,
м
25 мая, ср
ср2523:00+27в666881 0.0 10171026
02:00+26всв667284 0.0 1015938
05:00+26всв7674100 0.0 1015828
08:00+26в6674100 0.0 1017882
11:00+26в667370 0.0 1017890
14:00+26в677313 0.0 1016904
17:00+26в777431 0.1 1016914
20:00+26в7876100 0.1 1017877
26 мая, чт
чт2623:00+26в7777100 0.0 1017809
02:00+26в667838 0.1 1016867
05:00+26всв777990 0.1 1016788
08:00+26всв887531 0.2 1018872
11:00+27в887334 0.0 10181038
14:00+27в887331 0.1 1017940
17:00+27в7772100 0.0 1017940
20:00+27всв787187 0.0 1018920
27 мая, пт
пт2723:00+26всв8879100 0.1 1018903
02:00+26в777887 0.9 1016820
05:00+26в8878100 1.3 1016914
08:00+26всв8872100 1.6 1017927
11:00+27в8868100 0.0 1018918
14:00+27в7869100 0.0 1017926
17:00+27в7771100 0.0 1016878
20:00+27в7876100 0.1 1018895
28 мая, сб
сб2823:00+27всв8878100 0.1 1018903
02:00+27в8877100 0.3 1015968
05:00+27в7878100 0.1 1016892
08:00+27в7877100 0.2 1017942
11:00+27в8878100 0.1 1017853
14:00+27в7873100 0.1 1016925
17:00+27в8974100 0.0 1015991
20:00+27в897479 0.0 1016965
29 мая, вс
вс2923:00+27в897565 0.0 1017948
02:00+27в897813 0.0 1015867
05:00+26в898099 0.9 1015796
08:00+26в89795 2.3 1017796
11:00+27в897996 0.2 1017859
14:00+27в7880100 1.2 1016711
17:00+27в7880100 0.1 1015922
20:00+27в8981100 0.1 1016851